Regional Weather Roundup
Issued by NWS Boston, MA

Home | Current Version | Previous Version | Text Only | Print | Product List | Glossary On
Versions: 1 2 3 4 5 6 7 8 9 10 11 12 13 14 15 16 17 18 19 20 21 22 23 24 25 26 27 28
000
ASUS41 KBOX 280210
RWRBOX

REGIONAL WEATHER ROUNDUP
NATIONAL WEATHER SERVICE TAUNTON MA
900 PM EST MON FEB 27 2017

NOTE:  "FAIR" INDICATES FEW OR NO CLOUDS BELOW 12,000 FEET WITH NO
SIGNIFICANT WEATHER AND/OR OBSTRUCTIONS TO VISIBILITY.

MAZALL-280300-
EASTERN MASSACHUSETTS

CITY           SKY/WX    TMP DP  RH WIND       PRES   REMARKS
BOSTON         CLEAR     44  26  49 SW13      30.37R
BEVERLY        CLEAR     44  25  47 SW9       30.35R
LAWRENCE       PTCLDY    44  24  45 SW9       30.35R
BEDFORD        CLEAR     43  22  43 SW8       30.35R
BLUE HILL        N/A     40  25  55 SW16G23   30.34R WCI  31
NORWOOD        CLEAR     44  27  51 SW6       30.38R
MARSHFIELD     CLEAR     43  30  61 SW6G14    30.38R
PLYMOUTH       CLEAR     42  33  70 SW13      30.39R
TAUNTON        CLEAR     42  32  67 SW9       30.39R
NEW BEDFORD    CLEAR     43  35  73 SW10      30.39S
$$

MAZALL-280300-
CAPE COD AND THE ISLANDS

CITY           SKY/WX    TMP DP  RH WIND       PRES   REMARKS
FALMOUTH       CLEAR     41  36  81 MISG      30.42S
HYANNIS        CLEAR     41  36  82 SW13      30.40R
CHATHAM        CLEAR     42  36  79 SW10G18   30.42S
PROVINCETOWN   CLEAR     40  36  86 SW10      30.41R
NANTUCKET      CLEAR     41  36  82 SW12      30.44S
MARTHAS VNYRD    N/A    N/A N/A N/A MISG      30.41F
$$

MAZALL-280300-
CENTRAL AND WESTERN MASSACHUSETTS

CITY           SKY/WX    TMP DP  RH WIND       PRES   REMARKS
WORCESTER      CLEAR     38  23  55 SW9       30.34R WCI  31
FITCHBURG      CLEAR     44  23  43 S6        30.35R
ORANGE         CLEAR     40  24  53 S7        30.33R
SPRINGFIELD    CLEAR     41  26  54 S8        30.35R
WESTFIELD      CLEAR     42  25  50 CALM      30.35R
NORTH ADAMS    PTCLDY    30  24  78 CALM      30.32R
PITTSFIELD     CLEAR     40  19  43 SW6       30.30R
$$

RIZALL-280300-
RHODE ISLAND

CITY           SKY/WX    TMP DP  RH WIND       PRES   REMARKS
PROVIDENCE     CLEAR     42  32  67 SW9       30.40S
NEWPORT        CLEAR     41  37  86 VRB5      30.40S
BLOCK ISLAND   CLEAR     43  39  86 SW14      30.40F
SMITHFIELD     CLEAR     40  30  67 VRB6      30.38R
WESTERLY       CLEAR     43  35  73 VRB5      30.40F
$$

CTZALL-280300-
CONNECTICUT

CITY           SKY/WX    TMP DP  RH WIND       PRES   REMARKS
BRADLEY INTL   PTCLDY    43  29  57 SW12      30.37R
HARTFORD       CLEAR     42  33  70 S8        30.37S
BRIDGEPORT     CLEAR     43  35  73 W6        30.38F
DANBURY        CLEAR     33  27  78 CALM      30.38S
GROTON         CLEAR     43  36  76 W3        30.39F
NEW HAVEN      CLEAR     42  36  79 SW6       30.39S
CHESTER        FAIR      41  36  81 CALM      30.38R
MERIDEN        CLEAR     39  31  72 S5        30.38F
WILLIMANTIC    CLEAR     43  33  68 CALM      30.39R
OXFORD         CLEAR     41  28  60 SW5       30.38R
$$

MEZ002-015-021-024-NHZ003-005-008-011-012-014-VTZ005-008-280300-
NORTHERN NEW ENGLAND

CITY           SKY/WX    TMP DP  RH WIND       PRES   REMARKS
PORTLAND ME    CLEAR     41  20  43 CALM      30.30R
BANGOR ME      MOCLDY    34  25  69 S6        30.26R WCI  29
CONCORD NH     CLOUDY    40  20  44 S6        30.31R
MANCHESTER NH  MOCLDY    45  17  32 S9        30.31R
NASHUA NH      PTCLDY    43  21  41 CALM      30.34R
PORTSMOUTH NH  MOCLDY    46  18  32 SW9       30.30R
JAFFREY NH     CLEAR     35  20  54 S3        30.31R
KEENE NH       PTCLDY    35  22  58 CALM      30.32R
BURLINGTON VT  PTCLDY    40  25  55 S5        30.28R
MT. WASHINGTON FOG       16  16 100 W70G76      N/A  VSB 1/16WCI -12
$$

NYZ052-076-280300-
EASTERN NEW YORK

CITY           SKY/WX    TMP DP  RH WIND       PRES   REMARKS
ALBANY         PTCLDY    40  19  43 S8        30.33R
NEW YORK CITY  MOCLDY    51  29  42 SW6       30.39S
$$

ANZALL-280300-
MARINE OBSERVATIONS

STATION/POSITION TIME  TEMP    WIND        PRES    VSBY  WAVE
                       AIR SEA DIR/SP/G                  HT/PER
                 (UTC) (F)     (DEG/KT/KT) (MB)    (MI)  (FT/S)
BOSTON BUOY      0050   45 42  210/ 16/ 17 1027.0          3/ 3
BUZZARDS BAY     0100   42     230/ 14/ 14 1030.1R
NANTUCKET SOUND  0050   43 40  220/ 16/ 19 1030.0          2/ 3
MASS BAY-STELLWA 0104   45 42  220/ 14/ 17 1026.5R         5/ 4
ISLE OF SHOALS   0200   45     220/ 21/ 22 1026.6R
S OF BLOCK IS    0155      43                N/A           4/ 5
$$

......................KEY.........................
  SKY/WX - SKY CONDITION/PRESENT WEATHER
  TMP    - TEMPERATURE IN FAHRENHEIT
  DWPT   - DEWPOINT IN FAHRENHEIT
  RH     - RELATIVE HUMIDITY IN PERCENT
  WIND   - DIRECTION AND SPEED IN MPH
  PRES   - MEAN SEA LEVEL PRESSURE IN INCHES OF HG
  WCI    - WIND CHILL INDEX
  VSB    - VISIBILITY IN MILES
  HX     - HEAT INDEX
  TC     - TEMPERATURE IN CELSIUS
  VRB    - VARIABLE WIND DIRECTION
  N/A    - NOT AVAILABLE




USA.gov is the U.S. government's official web portal to all federal, state and local government web resources and services.